This is the latest recevied weather packets stored in our database for station/object Krozingen. If no packets are shown the sender has not sent any weather packets the latest 10 day(s).
| Time | Temp. | Humidity | Pressure | Rain* | Wind** | Luminosity | Snow |
|---|---|---|---|---|---|---|---|
| 1777770132 | 13.89° C | 73% | 1016.1 hPa | 0 mm | - | - | - |
| 1777768329 | 15° C | 73% | 1016.2 hPa | 0 mm | - | - | - |
| 1777766530 | 15.56° C | 71% | 1016.5 hPa | 0 mm | - | - | - |
| 1777764730 | 15° C | 72% | 1016.4 hPa | 0 mm | - | - | - |
| 1777762930 | 15.56° C | 71% | 1016.5 hPa | 0 mm | - | - | - |
| 1777761131 | 16.67° C | 68% | 1016.6 hPa | 0 mm | - | - | - |
| 1777759330 | 17.22° C | 64% | 1016.5 hPa | 0 mm | - | - | - |
| 1777757530 | 17.22° C | 66% | 1016.5 hPa | 0 mm | - | - | - |
| 1777755729 | 17.22° C | 66% | 1016.4 hPa | 0 mm | - | - | - |
| 1777753930 | 17.78° C | 64% | 1016.3 hPa | 0 mm | - | - | - |
| 1777752130 | 18.89° C | 62% | 1016.1 hPa | 0 mm | - | - | - |
| 1777750335 | 19.44° C | 60% | 1015.9 hPa | 0 mm | - | - | - |
| 1777748537 | 21.11° C | 57% | 1015.7 hPa | 0 mm | - | - | - |
| 1777746730 | 23.33° C | 51% | 1015.6 hPa | 0 mm | - | - | - |
| 1777744931 | 26.11° C | 40% | 1015.4 hPa | 0 mm | - | - | - |
| 1777743130 | 27.22° C | 35% | 1015.5 hPa | 0 mm | - | - | - |
| 1777741330 | 27.78° C | 36% | 1015.5 hPa | 0 mm | - | - | - |
| 1777739530 | 27.22° C | 33% | 1015.8 hPa | 0 mm | - | - | - |
| 1777737733 | 27.78° C | 34% | 1016.3 hPa | 0 mm | - | - | - |
| 1777735930 | 28.33° C | 30% | 1016.6 hPa | 0 mm | - | - | - |
| 1777734130 | 28.33° C | 33% | 1016.9 hPa | 0 mm | - | - | - |
| 1777732330 | 28.33° C | 35% | 1017.4 hPa | 0 mm | - | - | - |
| 1777730530 | 27.78° C | 35% | 1017.9 hPa | 0 mm | - | - | - |
| 1777728731 | 27.78° C | 38% | 1018.4 hPa | 0 mm | - | - | - |
| 1777726930 | 26.11° C | 39% | 1018.8 hPa | 0 mm | - | - | - |
* Rain since midnight (hover to see other rain measurements)
** Current wind speed in m/s (hover to see current wind gust speed)